User: anonymous   Login
Location: Washington
(38.8950°N, 77.0370°W)
Time: 00:16:02
(UTC-04:00)
Language:

IDEFIX/ARIANE 42P - Orbit

View from above orbital plane
View from above orbital plane
View from above satellite
View from above satellite

Ground track
Ground track

The orbit data is extracted from the following two-line orbital elements,

1 27422U 02021B   15114.16026947  .00000329  00000-0  14557-3 0  9998
2 27422 098.2618 146.2230 0013213 048.2620 311.9691 14.29169299674541
Epoch (UTC): 24 April 2015 03:50:47
Eccentricity: 0.0013213
inclination: 98.2618°
perigee height: 785 km
apogee height: 804 km
right ascension of ascending node: 146.2230°
argument of perigee: 48.2620°
revolutions per day: 14.29169299
mean anomaly at epoch: 311.9691°
orbit number at epoch: 67454

The dashed part of the orbit path shows where the satellite is in the earth's shadow,  

DLR